Weather History for KP68 - February, 2014

Change the Weather History Date:

Monday, February 10, 2014

  Actual Average Record
Temperature  
Mean Temperature 36 °F 28 °F  
Max Temperature 43 °F 41 °F 61 °F (2012)
Min Temperature 29 °F 15 °F -14 °F (1985)
Degree Days  
Heating Degree Days 29 37  
Month to date heating degree days 405 382  
Since 1 July heating degree days 4369 4665  
Cooling Degree Days 0 0  
Month to date cooling degree days 0 0  
Year to date cooling degree days 0 0  
Moisture  
Dew Point 31 °F    
Average Humidity 81    
Maximum Humidity 100    
Minimum Humidity 62    
Precipitation  
Precipitation 0.06 in 0.03 in 0.10 in (2000)
Month to date precipitation 0.52 0.30  
Year to date precipitation 1.31 1.04  
Sea Level Pressure  
Sea Level Pressure 30.13 in    
Wind  
Wind Speed 5 mph (North)    
Max Wind Speed 17 mph    
Max Gust Speed 24 mph    
T = Trace of Precipitation, MM = Missing Value Source: NWS Daily Summary

Daily Weather History Graph

Daily Weather History Graph

Search for Another Location

Airport or City:

Trip Planner

Search our weather history database for the weather conditions in past years. The results will help you decide how hot, cold, wet, or windy it might be!

Date:

Astronomy

Feb. 10, 2014 Rise Set
Actual Time 6:42 AM PST 5:14 PM PST
Civil Twilight 6:14 AM PST 5:42 PM PST
Nautical Twilight 5:42 AM PST 6:14 PM PST
Astronomical Twilight 5:11 AM PST 6:45 PM PST
Moon 1:47 PM PST (2/10) 3:38 AM PST (2/10)
Length of Visible Light 11h 28m
Length of Day
10h 32m
Waxing Gibbous, 85% of the Moon is Illuminated
Feb 10
Waxing Gibbous
Feb 14
Full
Feb 22
Last Quarter
Mar 1
New
Mar 8
First Quarter

Hourly Weather History & Observations

Time (PST) Temp. Windchill Dew Point Humidity Pressure Visibility Wind Dir Wind Speed Gust Speed Precip Events Conditions
12:53 AM 35.1 °F 26.9 °F 33.1 °F 92% 30.00 in - North 11.5 mph - 0.03 in   Unknown
1:53 AM 34.0 °F 28.8 °F 33.1 °F 96% 30.03 in - NE 5.8 mph - 0.03 in   Unknown
2:53 AM 34.0 °F 31.0 °F 33.1 °F 96% 30.02 in - SSE 3.5 mph - N/A   Unknown
3:53 AM 33.1 °F 30.0 °F 32.0 °F 96% 30.01 in - WNW 3.5 mph - N/A   Unknown
4:53 AM 33.1 °F - 32.0 °F 96% 30.04 in - Calm Calm - N/A   Unknown
5:53 AM 33.1 °F 28.7 °F 32.0 °F 96% 30.04 in - South 4.6 mph - N/A   Unknown
6:53 AM 34.0 °F 29.8 °F 32.0 °F 92% 30.09 in - North 4.6 mph - N/A   Unknown
7:53 AM 34.0 °F 31.0 °F 32.0 °F 92% 30.12 in - South 3.5 mph - N/A   Unknown
8:53 AM 36.0 °F - 33.1 °F 89% 30.13 in - Calm Calm - N/A   Unknown
9:53 AM 37.9 °F 34.4 °F 34.0 °F 86% 30.17 in - NNW 4.6 mph - N/A   Unknown
10:53 AM 41.0 °F 37.1 °F 36.0 °F 82% 30.17 in - Variable 5.8 mph - N/A   Unknown
11:53 AM 39.0 °F 32.8 °F 32.0 °F 76% 30.16 in - North 9.2 mph - N/A   Unknown
12:53 PM 39.9 °F 33.4 °F 33.1 °F 77% 30.15 in - North 10.4 mph - N/A   Unknown
1:53 PM 42.1 °F 38.4 °F 30.9 °F 65% 30.14 in - North 5.8 mph - N/A   Unknown
2:53 PM 41.0 °F 34.7 °F 32.0 °F 70% 30.16 in - North 10.4 mph - N/A   Unknown
3:53 PM 41.0 °F 36.4 °F 32.0 °F 70% 30.17 in - North 6.9 mph - N/A   Unknown
4:53 PM 39.9 °F 34.5 °F 30.9 °F 70% 30.18 in - North 8.1 mph - N/A   Unknown
5:53 PM 36.0 °F 33.3 °F 30.0 °F 79% 30.20 in - NNW 3.5 mph - N/A   Unknown
6:53 PM 35.1 °F - 28.9 °F 78% 30.22 in - Calm Calm - N/A   Unknown
7:53 PM 33.1 °F - 30.0 °F 89% 30.23 in - Calm Calm - N/A   Unknown
8:53 PM 30.0 °F 26.5 °F 27.0 °F 88% 30.22 in - SSW 3.5 mph - N/A   Unknown
9:53 PM 30.0 °F 24.1 °F 27.0 °F 88% 30.20 in - South 5.8 mph - N/A   Unknown
10:53 PM 30.0 °F 23.2 °F 27.0 °F 88% 30.17 in - SSE 6.9 mph - N/A   Unknown
11:53 PM 30.0 °F 23.2 °F 27.0 °F 88% 30.17 in - South 6.9 mph - N/A   Unknown